This demonstration page uses our WeatherBlox Daily Observations layout. Learn more.

Left ArrowRight Arrow

39.01783, -85.05884

Hourly Observations for November 27, 2021

Temp ( °F °C ) Dew Point ( °F °C ) Humidity (%) Winds ( mph kmh ) Pressure ( in mb ) Visibility ( mi km ) Precip ( " mm )
12:52 am 00:52 Cloudy 30 -1.1 20 -6.7 66 66 SSW 3 6 30.11 1020 10 16 N/A
1:52 am 01:52 Cloudy 30 -1.1 20 -6.7 66 66 SW 3 6 30.11 1020 10 16 N/A
2:52 am 02:52 Cloudy 30 -1.1 22 -5.6 72 72 N N/A 30.11 1020 10 16 N/A
3:52 am 03:52 Mostly Cloudy 30 -1.1 22 -5.6 72 72 S 6 9 30.09 1019 10 16 N/A
4:52 am 04:52 Cloudy 31 -0.6 21 -6.1 67 67 S 8 13 30.08 1019 10 16 N/A
5:52 am 05:52 Cloudy 32 undefined 21 -6.1 64 64 S 8 13 30.06 1018 10 16 N/A
6:52 am 06:52 Cloudy 32 undefined 21 -6.1 64 64 S 9 15 30.07 1018 10 16 N/A
7:52 am 07:52 Cloudy 33 0.6 21 -6.1 61 61 S 8 13 30.07 1018 10 16 N/A
8:52 am 08:52 Cloudy 34 1.1 21 -6.1 59 59 S 10 17 30.05 1018 10 16 N/A
9:52 am 09:52 Partly Cloudy 37 2.8 20 -6.7 50 50 S 13 20 30.02 1017 10 16 N/A
10:52 am 10:52 Partly Cloudy 41 5 22 -5.6 47 47 S 14 22 30.01 1016 10 16 N/A
11:52 am 11:52 Mostly Cloudy 44 6.7 22 -5.6 41 41 SSW 13 20 29.98 1015 10 16 N/A
12:52 pm 12:52 Cloudy 45 7.2 25 -3.9 46 46 S 13 20 29.93 1014 10 16 N/A
1:52 pm 13:52 Cloudy 46 7.8 24 -4.4 42 42 S 15 24 29.90 1013 10 16 N/A
2:52 pm 14:52 Cloudy 46 7.8 26 -3.3 46 46 SW 10 17 29.89 1012 10 16 N/A
3:52 pm 15:52 Mostly Cloudy 47 8.3 27 -2.8 46 46 SW 6 9 29.89 1012 10 16 N/A
4:52 pm 16:52 Mostly Cloudy 45 7.2 27 -2.8 49 49 SSW 6 9 29.88 1012 10 16 N/A
5:52 pm 17:52 Cloudy 44 6.7 26 -3.3 49 49 N N/A 29.89 1012 10 16 N/A
6:52 pm 18:52 Mostly Cloudy 42 5.6 28 -2.2 58 58 S 8 13 29.86 1011 10 16 N/A
7:52 pm 19:52 Cloudy 44 6.7 28 -2.2 53 53 SSW 5 7 29.87 1012 10 16 N/A
8:52 pm 20:52 Mostly Cloudy 44 6.7 28 -2.2 53 53 SW 7 11 29.85 1011 10 16 N/A
9:52 pm 21:52 Partly Cloudy 44 6.7 29 -1.7 55 55 SSW 8 13 29.85 1011 10 16 N/A
10:52 pm 22:52 Clear 43 6.1 29 -1.7 58 58 SW 8 13 29.85 1011 10 16 N/A
11:52 pm 23:52 Clear 44 6.7 29 -1.7 55 55 WSW 9 15 29.85 1011 10 16 N/A

Powered by AerisWeather